Regional Weather Roundup
Issued by NWS Mt. Holly, NJ

Home | Current Version | Previous Version | Text Only | Print | Product List | Glossary On
Versions: 1 2 3 4 5 6 7 8 9 10 11 12 13 14 15 16 17 18 19 20 21 22 23 24 25 26 27 28 29 30 31 32 33 34 35 36 37 38 39 40 41 42 43 44 45 46 47 48
000
ASUS41 KPHI 291611
RWRPHI

REGIONAL WEATHER ROUNDUP
NATIONAL WEATHER SERVICE MOUNT HOLLY NJ
1200 PM EDT SUN MAR 29 2015

NOTE:  "FAIR" INDICATES FEW OR NO CLOUDS BELOW 12,000 FEET WITH NO
SIGNIFICANT WEATHER AND/OR OBSTRUCTIONS TO VISIBILITY.

 * = STATION DOES NOT REPORT PRECIPITATION (E.G. RAIN, SNOW, ETC.)
        OR FOG.

NJZ015>026-291700-
SOUTHERN NEW JERSEY

CITY           SKY/WX    TMP DP  RH WIND       PRES   REMARKS
POMONA         SUNNY     38   6  26 N12G17    30.30F WCI  30
RIO GRANDE*    SUNNY    N/A N/A N/A NW12G18   30.33F
MILLVILLE      SUNNY     37   8  30 N14G22    30.32S WCI  28
WRIGHTSTOWN    SUNNY     37   5  26 NW9       30.28S WCI  30
MOUNT HOLLY    SUNNY     36   8  31 N9        30.32S WCI  29
TRENTON        SUNNY     37   5  26 VRB5      30.30S WCI  33

$$
NJZ001>014-291700-
NORTHERN NEW JERSEY

CITY           SKY/WX    TMP DP  RH WIND       PRES   REMARKS
SUSSEX         SUNNY     36   7  29 NW10G16   30.27F WCI  28
ANDOVER*         N/A     35   5  28 VRB6      30.27F WCI  30
MORRISTOWN     SUNNY     36   1  23 NE6G16    30.30S WCI  31
NEWARK         SUNNY     39   0  19 N12G17    30.29F WCI  32
TETERBORO      SUNNY     37   4  25 NW9       30.27F WCI  30
CALDWELL       SUNNY     36   1  22 VRB3      30.28F
SOMERVILLE     SUNNY     38   2  22 N10G20    30.28F WCI  31
ALLAIRE*       SUNNY     36   7  30 NW15      30.28S WCI  26
TOMS RIVER*    SUNNY     36   3  25 NW15      30.29F WCI  26

$$
PAZ043-044-047-054-055-060>062-066>071-291700-
EASTERN PENNSYLVANIA

CITY           SKY/WX    TMP DP  RH WIND       PRES   REMARKS
PHILADELPHIA   SUNNY     37   5  26 N10G22    30.34F WCI  30
NORTH PHILA    SUNNY     38   7  27 N10       30.34S WCI  31
BLUE BELL      SUNNY     36  12  38 N8        30.31S WCI  29
DOYLESTOWN     SUNNY     35   7  31 N9        30.29F WCI  28
QUAKERTOWN*    SUNNY     34   9  35 NW7G16    30.31F WCI  28
POTTSTOWN      SUNNY     36   9  32 NW9       30.33F WCI  29
LANCASTER      SUNNY     35   9  33 N9G22     30.33F WCI  28
COATESVILLE    SUNNY     34   9  35 NW10G16   30.32F WCI  26
READING        SUNNY     36   6  28 NW8G16    30.32F WCI  30
ALLENTOWN      MIX PCPN  37  10  32 NW12G18   30.30F WCI  29
MOUNT POCONO   SUNNY     29   5  36 N10G20    30.19F WCI  20
HAZLETON       SUNNY     30  10  43 NW3       30.26F
WILKES BARRE   SUNNY     34   8  33 W10       30.26F WCI  26

$$
DEZALL-MDZ008-012-015-019-020-291700-
DELAWARE AND EASTERN MARYLAND

CITY           SKY/WX    TMP DP  RH WIND       PRES   REMARKS
WILMINGTON     SUNNY     37   3  24 N9        30.35S WCI  30
DOVER          SUNNY     37   7  29 NW14G21   30.34F WCI  28
GEORGETOWN     SUNNY     36   6  28 NW12G17   30.34F WCI  28
EASTON         SUNNY     37  14  38 NW10G21   30.41S WCI  30
PATUXENT       SUNNY     36   7  29 NW10      30.39S WCI  28
OCEAN CITY     SUNNY     37  11  34 N12G18    30.34S WCI  29
WALLOPS ISLAND SUNNY     38  11  32 N9G20     30.35F WCI  31
CAMBRIDGE      SUNNY     36  10  35 N10G20    30.37F WCI  28
SALISBURY      SUNNY     36  11  35 N15G24    30.35S WCI  27

$$
PAZ001-021-NYZ056-072-MDZ011-DCZ001-291700-
OTHER NEARBY LOCATIONS

CITY           SKY/WX    TMP DP  RH WIND       PRES   REMARKS
HARRISBURG     SUNNY     35   9  33 W8        30.34F WCI  29
STATE COLLEGE  SUNNY     32   5  32 SW7       30.29F WCI  26
WILLIAMSPORT   SUNNY     34   7  32 VRB6      30.31F WCI  29
BINGHAMTON     SUNNY     27  10  49 VRB5      30.21F WCI  22
NEW YORK CITY  SUNNY     37  -1  20 VRB6      30.29F WCI  32
BALTIMORE      SUNNY     37   5  26 N8G17     30.37F WCI  31
WASHINGTON DC  SUNNY     38  10  31 N12       30.41F WCI  30

$$



USA.gov is the U.S. government's official web portal to all federal, state and local government web resources and services.